Kilingi-Nõmme

Estonia     58˚09′03″N   24˚57′54″E
temp.,
°C
wind,
m/s
gust,
m/s
humid.,
%
clouds,
%
prec.,
mm/h
press.,
hPa
HPBL,
m
2 december, wed
wed223:00s3788100 0.0 1029487
02:00−2˚s369293 0.0 1030235
05:00−3˚s379319 0.0 1030210
08:00−4˚s37939 0.0 1030223
11:00−3˚s368425 0.0 1031294
14:00−2˚sse368028 0.0 1030429
17:00−4˚sse38890 0.0 1028357
20:00−4˚sse279416 0.0 1028381
3 december, thu
thu323:00−3˚sse368497 0.0 1026558
02:00−3˚sse378198 0.0 1025603
05:00−2˚se368395 0.0 1023534
08:00−2˚se368297 0.1 1021809
11:00−2˚se4778100 0.0 1021717
14:00−2˚sse4881100 0.1 1020695
17:00−2˚sse4983100 0.1 1019880
20:00−1˚sse4983100 0.1 1018884
4 december, fri
fri423:00−1˚se51081100 0.0 1017861
02:00−1˚se51182100 0.0 1017772
05:00sse51284100 0.0 1015826
08:00sse61396100 0.4 1015786
11:00+2˚sse51380100 0.1 1015805
14:00+3˚sse61381100 0.1 1015789
17:00+3˚sse51484100 0.0 1014815
20:00+3˚sse41283100 0.0 1015884
5 december, sat
sat523:00+3˚sse51284100 0.0 1015877
02:00+3˚sse51384100 0.0 1016898
05:00+4˚sse5148799 0.0 1016770
08:00+4˚sse6158698 0.0 1017778
11:00+5˚sse6138293 0.0 1018859
14:00+5˚sse5138393 0.0 1019855
17:00+5˚sse5138686 0.0 1019754
20:00+4˚sse4128881 0.0 1021774
6 december, sun
sun623:00+5˚sse4118599 0.0 1021773
02:00+4˚sse51284100 0.0 1022690
05:00+4˚se51183100 0.0 1022757
08:00+4˚se51280100 0.0 1023802
11:00+4˚sse51180100 0.0 1024810
14:00+4˚sse4107899 0.0 1024890
17:00+2˚se5108099 0.0 1024772
20:00+1˚se4118196 0.0 1025687